This is the latest recevied weather packets stored in our database for station/object RJTT. If no packets are shown the sender has not sent any weather packets the latest 10 day(s).
| Time | Temp. | Humidity | Pressure | Rain* | Wind** | Luminosity | Snow |
|---|---|---|---|---|---|---|---|
| 1777911830 | 15° C | 41% | 1011 hPa | - | - | - | - |
| 1777910634 | 15.56° C | 44% | 1010 hPa | - | - | - | - |
| 1777908830 | 15.56° C | 41% | 1009 hPa | - | - | - | - |
| 1777908225 | 15.56° C | 41% | 1009 hPa | - | - | - | - |
| 1777907625 | 15.56° C | 41% | 1009 hPa | - | - | - | - |
| 1777907028 | 16.67° C | 42% | 1008 hPa | - | - | - | - |
| 1777906425 | 16.67° C | 42% | 1008 hPa | - | - | - | - |
| 1777905826 | 16.67° C | 42% | 1008 hPa | - | - | - | - |
| 1777905226 | 16.67° C | 45% | 1007 hPa | - | - | - | - |
| 1777904623 | 16.67° C | 45% | 1007 hPa | - | - | - | - |
| 1777904028 | 16.67° C | 45% | 1007 hPa | - | - | - | - |
| 1777903424 | 17.78° C | 42% | 1007 hPa | - | - | - | - |
| 1777902824 | 17.78° C | 42% | 1007 hPa | - | - | - | - |
| 1777901629 | 18.89° C | 42% | 1006 hPa | - | - | - | - |
| 1777901026 | 18.89° C | 42% | 1006 hPa | - | - | - | - |
| 1777900426 | 18.89° C | 42% | 1006 hPa | - | - | - | - |
| 1777899228 | 18.89° C | 45% | 1005 hPa | - | - | - | - |
| 1777898029 | 20° C | 42% | 1005 hPa | - | - | - | - |
| 1777897427 | 20° C | 42% | 1005 hPa | - | - | - | - |
| 1777896824 | 20° C | 42% | 1005 hPa | - | - | - | - |
| 1777894427 | 20.56° C | 46% | 1002 hPa | - | - | - | - |
| 1777893827 | 20.56° C | 46% | 1002 hPa | - | - | - | - |
| 1777893229 | 20.56° C | 46% | 1002 hPa | - | - | - | - |
| 1777892625 | 21.67° C | 40% | 1001 hPa | - | - | - | - |
| 1777890827 | 21.67° C | 43% | 1000 hPa | - | - | - | - |
* Rain since midnight (hover to see other rain measurements)
** Current wind speed in m/s (hover to see current wind gust speed)